Wind_Speed
26 27 30 30 34 35 36 37 36 37 39 44 47 51 56 57 58 56 58 57 54 52 54 56 57 58 59 59 57 57 57 61 61 61 63 61 59 54 59 62 65 68 71 70 75
28 30 31 36 40 41 40 38 40 41 46 47 55 60 61 64 60 62 60 56 55 57 55 55 55 56 58 61 63 63 63 65 64 65 66 69 66 63 61 64 68 72 70 69 72
31 32 34 38 41 43 42 43 43 43 50 56 61 65 71 66 63 63 58 55 57 57 55 54 53 56 57 57 59 62 64 67 68 69 71 72 71 68 68 69 72 73 76 75 74
33 34 36 41 44 45 46 45 45 51 57 59 65 71 71 68 65 57 55 59 57 55 56 57 56 55 52 52 52 56 61 63 66 69 69 71 75 74 73 74 78 76 77 79 78
34 38 40 43 47 49 49 48 52 55 63 67 68 73 72 71 64 59 61 61 55 55 55 56 58 57 55 51 53 54 58 64 68 72 74 72 72 74 73 78 77 77 79 81 85
36 39 43 46 50 49 50 52 55 56 66 71 69 75 70 68 63 63 66 64 60 58 60 64 65 65 64 64 65 66 69 72 73 74 77 76 73 74 77 78 75 77 82 84 87
38 42 48 51 53 53 55 55 58 61 70 71 74 77 70 70 66 65 65 63 63 64 69 72 70 65 64 65 66 71 75 75 76 76 73 72 74 80 82 85 76 75 80 86 89
44 47 50 49 53 55 56 60 63 65 74 73 77 78 69 72 70 67 64 62 63 69 76 73 71 71 73 73 75 75 74 78 85 80 81 79 78 89 91 87 84 82 82 83 88
44 44 46 50 54 56 57 65 69 69 74 75 79 78 70 73 69 66 61 63 67 75 80 78 79 79 79 75 76 76 77 65 63 64 62 66 69 82 89 88 90 89 88 88 89
43 43 47 48 57 59 63 69 71 71 76 79 79 79 69 75 69 67 63 65 72 81 81 79 82 84 79 79 78 77 63 59 54 53 53 58 59 72 75 79 82 89 92 95 95
46 50 48 55 60 61 67 69 76 75 77 80 79 76 71 75 67 66 67 72 75 84 86 85 86 89 85 81 84 67 56 53 53 48 47 49 54 56 63 67 74 78 85 94 99
56 58 57 64 67 70 73 72 79 78 74 83 81 75 73 76 68 70 73 77 80 86 88 88 92 91 87 89 80 63 52 48 46 42 40 41 44 46 50 55 61 68 74 82 93
59 61 66 69 70 75 76 75 76 80 82 81 80 77 74 76 69 71 76 78 81 89 89 93 95 93 86 89 72 59 47 44 39 40 34 33 39 41 42 46 50 55 61 68 76
60 63 67 70 73 76 82 82 78 82 83 79 78 74 74 74 66 70 74 80 83 89 91 97 94 92 92 79 63 50 47 40 36 34 31 30 35 34 35 38 42 45 48 56 63
64 67 71 75 78 82 82 82 81 84 83 80 78 76 74 73 74 74 79 83 87 92 91 97 94 96 93 72 58 48 43 38 36 31 28 26 26 29 30 31 34 40 44 51 58
70 70 77 78 80 83 82 87 91 82 78 79 77 78 70 69 71 77 80 84 91 94 90 95 94 96 89 68 50 47 39 38 33 28 23 23 23 23 27 28 31 34 37 41 48
79 78 80 84 83 87 85 87 84 83 79 76 75 76 73 74 76 77 80 83 87 91 92 95 93 91 82 68 54 42 39 34 29 25 23 22 20 21 22 24 26 29 32 33 38
81 82 86 85 87 87 88 88 80 79 78 77 75 75 74 74 77 80 82 86 90 93 93 94 92 89 80 64 44 40 39 32 27 24 21 20 17 19 18 20 19 23 23 26 31
89 86 86 88 88 93 88 84 78 77 74 77 77 71 73 74 78 80 82 86 89 92 95 94 95 89 77 61 49 40 38 31 26 23 19 18 14 14 14 13 15 17 19 23 28
91 88 87 86 93 88 83 84 77 77 73 77 77 71 75 78 77 85 83 86 88 91 93 96 94 85 77 65 46 39 36 29 24 21 16 14 12 10 10 10 12 18 18 24 28
85 87 86 94 88 82 78 79 74 79 78 80 76 73 77 80 77 85 86 88 89 93 92 94 94 82 73 62 52 39 36 28 24 19 14 11 9 9 7 10 9 19 21 25 27
85 91 95 90 86 82 86 75 78 81 80 79 73 77 80 81 76 83 87 87 88 91 91 92 90 79 70 62 49 38 35 27 23 17 14 8 8 8 8 10 11 19 23 26 27
97 90 88 86 88 86 85 81 74 77 77 73 74 76 79 82 79 83 86 86 86 88 90 90 84 76 69 63 50 38 35 27 22 16 15 9 9 9 11 10 16 22 26 29 32
86 88 93 88 93 88 80 75 77 77 75 75 76 77 78 85 83 85 87 85 86 88 88 89 83 76 66 60 50 38 33 29 21 16 13 10 7 13 14 14 19 29 29 35 37
95 95 95 94 90 87 83 77 76 77 79 77 78 81 80 81 83 86 87 84 85 88 85 86 81 73 65 60 51 40 31 30 20 15 13 11 8 15 18 20 23 32 30 41 42
100 97 94 89 91 90 89 86 85 85 82 79 78 84 82 82 84 86 85 83 84 86 82 83 77 69 63 58 50 40 30 28 19 14 13 12 10 15 18 22 26 27 37 44 46
99 99 95 91 89 90 91 91 92 86 85 84 84 86 88 87 85 83 83 82 81 82 81 80 73 64 59 57 49 41 29 26 20 14 12 12 12 13 18 25 30 27 41 41 52
Wind_Direction
336 334 332 332 332 335 337 336 338 335 334 340 339 334 334 326 323 320 318 315 309 303 302 297 292 290 288 285 281 276 272 268 266 264 264 264 262 255 248 249 250 241 232 232 235
332 329 330 330 329 331 339 337 336 340 341 340 343 342 339 332 327 324 321 314 309 307 304 299 296 292 289 286 283 279 274 269 266 263 264 265 262 258 251 249 252 248 239 232 232
329 327 328 328 327 331 336 336 334 336 338 338 342 340 341 334 330 325 320 313 310 310 306 302 301 299 294 288 281 278 274 271 268 264 263 262 260 258 255 253 251 250 244 234 230
325 325 325 324 326 329 333 334 336 336 337 338 339 340 338 334 332 327 323 320 317 313 311 307 304 301 297 289 284 280 274 272 269 266 263 262 261 257 254 253 251 246 243 239 232
321 320 322 324 324 331 332 335 337 339 341 340 339 339 336 333 332 328 328 325 319 315 311 306 308 312 309 301 294 287 280 276 269 264 263 259 254 254 257 252 247 246 240 237 235
316 317 318 319 322 329 333 336 338 336 339 338 339 337 334 333 332 330 328 326 322 319 317 317 318 319 315 308 299 294 288 282 276 272 266 261 261 258 254 251 247 244 240 236 233
311 310 314 320 323 327 332 335 334 334 335 338 339 337 334 333 333 328 325 324 325 324 326 324 321 316 310 305 297 292 289 289 284 278 270 263 264 260 252 250 245 246 243 239 234
310 312 317 322 326 328 334 337 335 334 337 335 338 337 334 333 331 328 325 323 325 328 329 326 322 318 313 310 304 300 298 293 287 279 271 265 261 257 252 249 244 240 240 241 236
316 319 319 321 327 331 334 337 335 334 336 336 335 336 332 332 330 329 327 328 329 333 331 328 327 322 319 317 310 307 305 293 283 275 270 263 255 253 251 247 244 240 235 235 235
309 317 322 327 334 336 334 335 335 335 333 336 333 335 330 332 330 328 327 328 332 335 332 331 327 325 322 320 316 317 308 298 287 282 273 265 255 254 252 250 245 239 236 230 230
309 320 321 324 332 332 333 332 335 333 332 334 331 334 330 331 329 332 332 332 332 334 333 331 328 328 326 324 326 320 310 298 293 287 274 268 259 255 251 250 247 242 238 234 229
312 317 321 323 327 330 329 331 333 331 328 332 332 334 326 330 332 335 337 335 336 333 334 334 331 331 329 328 326 321 310 301 294 288 280 271 266 259 255 249 247 245 241 236 233
311 315 320 321 324 327 329 327 329 330 330 333 331 332 327 330 332 332 333 333 334 333 334 335 334 332 331 331 326 322 312 305 301 294 287 279 267 259 255 252 245 243 242 239 235
313 314 318 321 322 324 326 327 327 331 330 330 329 330 325 329 331 332 334 334 335 334 337 336 335 333 332 333 327 321 316 312 309 300 292 277 271 264 258 251 248 242 235 235 232
309 310 316 319 321 322 322 324 324 329 329 326 326 328 327 328 331 331 334 336 337 336 339 339 337 334 333 336 329 324 320 318 315 304 293 281 273 268 261 256 248 243 238 236 234
306 313 314 316 318 320 321 324 324 327 326 323 325 327 329 331 332 332 331 336 339 337 339 340 337 335 334 337 332 325 322 323 316 304 293 285 277 268 266 263 255 248 242 237 236
311 312 314 313 315 318 319 323 322 322 324 321 326 323 327 330 333 333 331 334 336 337 339 339 338 336 335 337 336 331 326 325 313 303 297 290 283 276 267 262 256 251 244 234 235
308 310 311 312 314 316 320 321 320 319 320 319 323 324 325 327 332 334 333 334 336 337 339 339 340 337 337 338 337 329 329 327 315 309 306 298 293 281 273 264 255 249 243 233 223
307 308 309 311 316 318 319 317 318 315 315 319 324 322 326 328 329 333 333 332 336 337 340 340 341 338 337 341 341 335 332 327 317 314 312 307 298 288 282 273 263 245 232 221 212
304 305 307 313 315 315 313 316 313 312 313 318 321 320 329 328 326 332 331 333 334 336 339 340 340 339 340 341 342 336 334 325 320 317 318 314 304 293 282 271 248 234 218 209 202
300 307 310 310 312 311 310 313 311 310 314 316 319 319 325 324 326 327 331 332 331 334 338 339 339 340 342 342 340 337 335 326 321 319 318 313 291 282 285 257 242 224 211 200 196
303 304 308 309 308 305 310 310 311 311 311 316 318 319 321 323 322 328 329 330 329 331 336 337 339 339 343 341 341 337 334 328 322 320 311 308 277 267 255 244 216 211 206 190 185
301 301 303 300 305 302 309 309 309 310 310 314 318 315 316 323 321 326 326 330 330 330 333 336 336 340 343 342 342 337 335 330 324 317 308 306 270 249 231 224 210 202 193 184 177
297 298 299 300 303 306 308 308 305 311 310 313 314 317 319 320 321 324 324 326 327 327 330 333 334 338 343 340 341 338 335 331 323 314 305 300 249 247 226 217 208 192 195 178 176
297 299 301 301 303 304 307 305 308 311 310 309 307 311 314 318 319 318 323 323 323 324 327 332 333 337 341 341 339 338 334 332 321 314 300 290 237 224 228 221 209 194 202 178 181
299 299 300 300 303 303 303 307 304 305 304 307 307 308 309 314 315 316 319 321 321 323 325 329 331 337 341 339 335 336 333 330 318 315 298 283 256 222 219 216 214 199 203 192 187
298 298 297 298 297 299 299 298 303 305 307 307 307 307 309 309 310 312 315 317 319 320 324 327 330 337 342 340 334 333 328 330 321 313 298 280 264 233 213 210 212 207 200 204 188
Height
10764 10761 10757 10753 10749 10745 10742 10738 10733 10729 10723 10718 10713 10708 10701 10690 10687 10677 10670 10662 10656 10651 10646 10640 10634 10630 10625 10622 10619 10615 10615 10613 10614 10616 10613 10614 10615 10620 10621 10616 10615 10620 10630 10640 10645
10760 10756 10752 10748 10744 10740 10736 10731 10726 10722 10717 10711 10704 10698 10691 10681 10671 10663 10656 10649 10642 10636 10630 10623 10618 10614 10609 10603 10599 10597 10595 10591 10592 10594 10595 10593 10595 10598 10602 10603 10598 10599 10612 10624 10628
10755 10751 10747 10743 10739 10734 10729 10724 10719 10713 10708 10702 10695 10687 10679 10670 10661 10651 10642 10635 10628 10621 10614 10607 10601 10595 10591 10585 10581 10577 10572 10569 10569 10572 10573 10569 10571 10578 10580 10582 10579 10579 10585 10598 10607
10750 10745 10741 10737 10732 10728 10723 10718 10713 10707 10700 10693 10685 10676 10669 10659 10650 10640 10632 10623 10614 10607 10600 10594 10588 10581 10574 10567 10562 10557 10552 10549 10545 10543 10546 10548 10547 10550 10555 10557 10553 10557 10564 10576 10588
10744 10739 10735 10731 10726 10721 10716 10711 10705 10698 10691 10684 10675 10667 10656 10647 10636 10627 10619 10610 10602 10594 10586 10578 10571 10563 10555 10551 10544 10539 10534 10525 10523 10518 10516 10519 10521 10522 10527 10521 10529 10535 10543 10551 10560
10739 10734 10729 10724 10719 10715 10709 10702 10696 10689 10682 10674 10665 10657 10647 10637 10625 10615 10604 10596 10588 10578 10569 10560 10552 10545 10536 10528 10522 10515 10510 10502 10495 10490 10491 10494 10498 10499 10495 10493 10503 10512 10517 10524 10533
10732 10728 10723 10718 10713 10707 10701 10694 10688 10681 10673 10664 10654 10644 10634 10625 10614 10604 10595 10583 10573 10563 10554 10545 10536 10526 10518 10509 10499 10490 10481 10471 10463 10458 10460 10464 10472 10463 10461 10461 10478 10484 10491 10498 10505
10727 10722 10717 10712 10707 10700 10693 10686 10679 10672 10663 10653 10643 10632 10621 10612 10601 10589 10580 10572 10562 10551 10539 10529 10518 10507 10497 10487 10471 10462 10453 10445 10428 10425 10423 10427 10440 10425 10421 10433 10447 10454 10461 10471 10480
10720 10715 10710 10705 10699 10692 10684 10677 10669 10662 10653 10642 10633 10621 10610 10599 10588 10580 10568 10558 10547 10536 10523 10509 10497 10484 10471 10460 10446 10430 10420 10406 10396 10391 10393 10391 10398 10385 10389 10402 10411 10420 10434 10446 10454
10712 10708 10702 10696 10691 10683 10676 10668 10660 10651 10643 10632 10620 10611 10599 10589 10577 10566 10558 10546 10534 10521 10507 10494 10480 10464 10450 10435 10419 10404 10389 10374 10371 10367 10364 10361 10366 10357 10363 10372 10381 10388 10398 10410 10422
10703 10698 10692 10687 10681 10674 10667 10659 10651 10640 10629 10621 10610 10599 10588 10579 10566 10556 10543 10529 10518 10506 10490 10476 10459 10444 10428 10409 10389 10377 10366 10356 10346 10346 10344 10340 10338 10342 10341 10347 10350 10360 10371 10382 10393
10694 10688 10682 10677 10670 10665 10659 10650 10642 10632 10621 10612 10600 10589 10577 10565 10552 10538 10527 10514 10503 10491 10474 10458 10440 10422 10404 10387 10367 10358 10347 10337 10329 10327 10325 10322 10320 10322 10322 10327 10331 10336 10345 10355 10366
10684 10678 10672 10666 10660 10653 10647 10640 10631 10622 10610 10600 10588 10579 10568 10554 10541 10531 10517 10506 10492 10478 10461 10444 10422 10403 10387 10370 10349 10337 10330 10321 10317 10310 10310 10308 10302 10303 10306 10308 10313 10318 10325 10335 10344
10674 10668 10661 10655 10649 10643 10635 10626 10618 10610 10599 10590 10579 10567 10557 10547 10535 10522 10508 10494 10481 10465 10446 10428 10406 10387 10372 10355 10338 10324 10315 10309 10304 10299 10297 10295 10289 10291 10293 10295 10297 10301 10308 10311 10319
10664 10658 10650 10643 10638 10631 10623 10614 10605 10597 10587 10577 10568 10558 10544 10531 10519 10507 10495 10480 10466 10451 10433 10413 10393 10372 10353 10344 10326 10315 10305 10298 10293 10288 10285 10284 10282 10280 10280 10283 10285 10287 10291 10296 10301
10653 10647 10639 10632 10626 10621 10613 10603 10594 10584 10575 10564 10555 10546 10534 10523 10511 10494 10483 10468 10452 10435 10422 10406 10385 10365 10342 10334 10321 10305 10298 10290 10284 10280 10277 10275 10274 10274 10272 10274 10273 10274 10278 10283 10289
10639 10634 10627 10621 10614 10606 10598 10590 10581 10571 10563 10555 10545 10533 10524 10510 10498 10487 10472 10461 10449 10433 10415 10398 10377 10360 10341 10319 10307 10301 10291 10284 10278 10274 10270 10269 10269 10266 10266 10265 10266 10267 10268 10273 10278
10625 10621 10615 10608 10601 10593 10585 10576 10567 10558 10550 10541 10532 10521 10510 10500 10488 10474 10461 10445 10433 10419 10404 10388 10370 10350 10332 10318 10310 10296 10285 10278 10272 10268 10266 10263 10263 10260 10259 10258 10259 10259 10263 10265 10269
10610 10606 10601 10594 10587 10579 10571 10563 10554 10547 10538 10529 10520 10511 10501 10488 10476 10466 10452 10437 10423 10409 10393 10376 10359 10342 10325 10314 10300 10290 10281 10274 10268 10264 10261 10259 10258 10256 10255 10255 10255 10255 10256 10259 10263
10594 10590 10583 10578 10573 10566 10557 10549 10540 10533 10524 10517 10508 10498 10487 10477 10466 10454 10441 10428 10414 10400 10386 10368 10353 10335 10317 10305 10299 10287 10280 10271 10266 10261 10259 10256 10254 10252 10252 10252 10253 10253 10256 10257 10261
10578 10571 10565 10562 10557 10550 10544 10537 10527 10520 10512 10503 10493 10484 10475 10466 10455 10443 10430 10418 10403 10391 10379 10364 10346 10329 10315 10304 10290 10283 10277 10268 10263 10259 10256 10254 10252 10250 10251 10251 10253 10253 10255 10257 10262
10560 10555 10551 10545 10539 10533 10530 10522 10514 10507 10498 10490 10480 10471 10463 10455 10444 10434 10420 10409 10397 10383 10372 10358 10342 10328 10312 10299 10291 10281 10274 10266 10261 10257 10253 10252 10250 10249 10250 10251 10254 10253 10255 10258 10263
10548 10539 10533 10529 10523 10517 10514 10509 10501 10492 10484 10476 10467 10459 10451 10442 10433 10423 10411 10399 10388 10375 10363 10352 10340 10328 10310 10295 10286 10277 10272 10264 10259 10254 10250 10250 10248 10249 10248 10251 10255 10256 10258 10261 10264
10527 10523 10517 10513 10508 10502 10499 10491 10484 10477 10468 10462 10455 10447 10439 10429 10421 10413 10404 10392 10380 10367 10357 10344 10331 10321 10306 10295 10284 10275 10268 10262 10257 10253 10249 10248 10248 10247 10248 10250 10255 10257 10258 10264 10266
10506 10505 10500 10494 10486 10480 10477 10475 10468 10462 10452 10448 10442 10433 10426 10418 10408 10399 10392 10382 10371 10361 10351 10340 10326 10314 10302 10289 10279 10272 10266 10260 10255 10251 10247 10246 10247 10247 10248 10249 10253 10259 10260 10265 10271
10491 10486 10482 10475 10466 10458 10454 10453 10448 10445 10441 10432 10428 10419 10412 10405 10397 10389 10382 10374 10361 10351 10342 10333 10322 10309 10297 10286 10276 10269 10262 10257 10252 10249 10246 10243 10244 10244 10247 10249 10251 10259 10260 10265 10271
10466 10464 10463 10458 10450 10443 10435 10432 10431 10427 10421 10416 10412 10404 10398 10390 10383 10376 10369 10361 10354 10345 10334 10325 10314 10303 10295 10282 10271 10264 10259 10253 10249 10246 10244 10241 10241 10242 10243 10246 10249 10255 10261 10265 10270